TOURFACTS.DK  
Stats and Facts from Tour de France.

Tour de France 2019 starts in 354 days
  Riders   Stages   Teams   Summits   Yearly  


 
Search by year

After 2018 - Stage 9:
 15000 starters.
  5163 different riders.
  639 teams.
  2241 stages.
  456 restdays.
  441138.60 km.
  5662 abandonnees.


Top 3
GC
Christopher Froome86:20:55
Rigoberto Urán86:21:49
Romain Bardet86:23:15
Climb
Warren Barguil169 pt.
Primoz Roglic80 pt.
Thomas De Gendt64 pt.
Sprint
Michael Matthews359 pt.
André Greipel234 pt.
Edvald Boasson Hagen220 pt.
Youth
Simon Yates86:27:09
Louis Meintjes86:29:15
Emanuel Buchmann86:54:16
Facts from Tour de France 1950
  |   Stages.  |   Stage winners.  |   Days in yellow  |   Average speed.  |   Route.  |   Teams.  |   All riders.  |   Rookies.  |  

  |   Withdrawls.  |   GC.  |   Polka  |   Green  |   White  |   Summits. (In tour)  |   Miscellaneous.  |  

Stage 3 on July 15th. 1950
         Owning:    Bernard Gauthier    
Pick a stage:  1 2 3 4 5 6 7 8 9 10 11 12 13 14 15 16 17 18 19 20 21 22
  LiègeLille | Dist: 232.50 km.

Average speed for all riders in stage:  33,006 km./hr.
    Place:Name:Team:Time:Km/h:
ITAAlfredo PasottiITACadetti Italiens06:52:37  +  00:00:00=33,809 
BELMaurice BlommeBELBelgium06:52:37  +  00:00:00=33,809 
FRAMaurice De MuerFRAIle De France-North East06:52:37  +  00:00:00=33,809 
4 MEXAttilio LambertiniITAItaly06:52:37  +  00:00:00=33,809 
5 ITASylvio PedroniITAItaly06:52:37  +  00:00:00=33,809 
6 FRABernard GauthierFRASouth-East06:52:37  +  00:00:00=33,809 
7 BELLeopold De RijckeBELAiglons Belges06:52:37  +  00:00:00=33,809 
8 ITAAttilio RedolfiFRAIle De France-North East06:54:34  +  00:01:57=33,650 
9 BELMarcel HendrickxBELBelgium06:56:11  +  00:03:34=33,519 
10 BELJan StormsBELAiglons Belges06:56:13  +  00:03:36=33,516 
11 SUIPierre BrambillaFRASouth-East06:56:13  +  00:03:36=33,516 
12 FRARaphaël GeminianiFRAFrance06:56:13  +  00:03:36=33,516 
13 FRAGeorges MeunierFRACenter-South West06:56:36  +  00:03:59=33,485 
14 FRAKléber PiotFRAIle De France-North East06:56:36  +  00:03:59=33,485 
15 FRAJean BaldassariFRAParis06:56:55  +  00:04:18=33,460 
16 FRAPaul GiguetFRAFrance06:56:55  +  00:04:18=33,460 
17 FRALouison BobetFRAFrance06:56:55  +  00:04:18=33,460 
18 BELMarcel VerschuerenBELAiglons Belges06:56:55  +  00:04:18=33,460 
19 BELMarcel De MulderBELAiglons Belges06:56:55  +  00:04:18=33,460 
20 BELRoger LambrechtBELBelgium06:56:55  +  00:04:18=33,460 
21 ITASerifano BiagioniITAItaly06:56:55  +  00:04:18=33,460 
22 LUXJean GoldschmitLUXLuxembourg06:56:55  +  00:04:18=33,460 
23 ITAValerio BoniniITACadetti Italiens06:56:55  +  00:04:18=33,460 
24 LUXJean KirchenLUXLuxembourg06:56:55  +  00:04:18=33,460 
25 ITAGino BartaliITAItaly06:56:55  +  00:04:18=33,460 
26 ITAGiulio BresciITACadetti Italiens06:56:55  +  00:04:18=33,460 
27 FRAAlain MoineauFRACenter-South West06:56:55  +  00:04:18=33,460 
28 FRAJosé BeyaertFRAParis06:56:55  +  00:04:18=33,460 
29 SUIFerdi KüblerCHESwitzerland06:56:55  +  00:04:18=33,460 
30 BELEduard Van EndeBELBelgium06:56:55  +  00:04:18=33,460 
31 BELBriek SchotteBELBelgium06:56:55  +  00:04:18=33,460 
32 BELRaymond ImpanisBELBelgium06:56:55  +  00:04:18=33,460 
33 BELMarcel DupontBELBelgium06:56:55  +  00:04:18=33,460 
34 FRAPierre CoganFRACenter-South West06:57:31  +  00:04:54=33,412 
35 FRADaniel ThuayreFRAIle De France-North East06:57:31  +  00:04:54=33,412 
36 FRAJean RobicFRAWest06:57:54  +  00:05:17=33,381 
37 BELStan OckersBELBelgium06:57:54  +  00:05:17=33,381 
38 FRAJean-Apotre LazaridesFRAFrance06:57:54  +  00:05:17=33,381 
39 FRARobert ChapatteFRAParis06:57:54  +  00:05:17=33,381 
40 NEDGerrit VoortingNLDHolland06:58:25  +  00:05:48=33,340 
41 ITANello SforacchiFRAIle De France-North East06:58:41  +  00:06:04=33,319 
42 ITAGaliano PividoriFRAIle De France-North East06:58:41  +  00:06:04=33,319 
43 FRAPaul PineauFRACenter-South West06:58:41  +  00:06:04=33,319 
44 FRAAntonin RollandFRASouth-East06:58:41  +  00:06:04=33,319 
45 FRABasile DecortèsFRAWest06:58:41  +  00:06:04=33,319 
46 FRAHervé ProuzetFRACenter-South West06:58:41  +  00:06:04=33,319 
47 ITAVittorio MagniITAItaly06:58:41  +  00:06:04=33,319 
48 ALGMarcel ZelascoNAFNorth Africa06:59:47  +  00:07:10=33,231 
49 FRARoger ChupinFRAWest07:00:09  +  00:07:32=33,202 
50 LUXWilly KempLUXLuxembourg07:00:09  +  00:07:32=33,202 
51 FRARobert DorgebrayFRAParis07:00:09  +  00:07:32=33,202 
52 SUIGottfried WeilenmannCHESwitzerland07:00:09  +  00:07:32=33,202 
53 LUXJean DiederichLUXLuxembourg07:00:09  +  00:07:32=33,202 
54 ITAAlberto GhirardiITACadetti Italiens07:00:09  +  00:07:32=33,202 
55 ITAAdolfo LeoniITACadetti Italiens07:00:09  +  00:07:32=33,202 
56 ITAGino SciardisFRAWest07:00:09  +  00:07:32=33,202 
57 FRARoger PontetFRAWest07:00:09  +  00:07:32=33,202 
58 ITANello LaurediFRAFrance07:00:09  +  00:07:32=33,202 
59 BELHilaire CouvreurBELBelgium07:00:09  +  00:07:32=33,202 
60 FRANoel LajoieFRACenter-South West07:00:09  +  00:07:32=33,202 
61 FRAMarius BonnetFRASouth-East07:00:09  +  00:07:32=33,202 
62 FRAArmand DarnauguilhemFRACenter-South West07:01:18  +  00:08:41=33,112 
63 FRAJean-Marie GoasmatFRAWest07:01:35  +  00:08:58=33,090 
64 FRARobert CastelinFRASouth-East07:01:35  +  00:08:58=33,090 
65 FRAPierre MolinerisFRAFrance07:01:44  +  00:09:07=33,078 
66 FRARené BertonFRACenter-South West07:01:56  +  00:09:19=33,062 
67 FRAAndré BruléFRAIle De France-North East07:01:56  +  00:09:19=33,062 
68 NEDWim De RuyterNLDHolland07:02:06  +  00:09:29=33,049 
69 SUIEmilio Croci TortiCHESwitzerland07:02:06  +  00:09:29=33,049 
70 FRARaoul RemyFRASouth-East07:02:06  +  00:09:29=33,049 
71 FRALouis DeprezFRAFrance07:03:30  +  00:10:53=32,940 
72 FRAGilbert BauvinFRAIle De France-North East07:03:30  +  00:10:53=32,940 
73 LUXHenri KellenLUXLuxembourg07:03:30  +  00:10:53=32,940 
74 NEDWout WagtmansNLDHolland07:03:48  +  00:11:11=32,916 
75 FRAEmile RolFRASouth-East07:03:48  +  00:11:11=32,916 
76 FRAEmile BaffertFRAFrance07:03:48  +  00:11:11=32,916 
77 FRAJacques MarinelliFRAFrance07:03:48  +  00:11:11=32,916 
78 FRAAndre MahéFRAWest07:03:48  +  00:11:11=32,916 
79 ITAVirgilio SalimbeniITAItaly07:04:06  +  00:11:29=32,893 
80 MARCustodio Dos ReisNAFNorth Africa07:05:07  +  00:12:30=32,815 
81 SUIGeorges AeschlimannCHESwitzerland07:05:26  +  00:12:49=32,790 
82 SUIFritz ZbindenCHESwitzerland07:05:26  +  00:12:49=32,790 
83 NEDJoseph JanssenNLDHolland07:05:26  +  00:12:49=32,790 
84 FRAMaurice KallertFRASouth-East07:05:26  +  00:12:49=32,790 
85 MARMax CharroinNAFNorth Africa07:05:26  +  00:12:49=32,790 
86 ALGAhmed KebaïliNAFNorth Africa07:05:26  +  00:12:49=32,790 
87 NEDHenk de HoogNLDHolland07:05:26  +  00:12:49=32,790 
88 FRAMarcel DussaultFRACenter-South West07:06:24  +  00:13:47=32,716 
89 FRAAntonin CanaveseFRASouth-East07:07:38  +  00:15:01=32,621 
90 FRAMaurice QuentinFRAParis07:07:41  +  00:15:04=32,618 
91 BELArmand BaeyensBELAiglons Belges07:08:27  +  00:15:50=32,559 
92 FRARoger CretonFRAWest07:09:15  +  00:16:38=32,499 
93 FRARobert DesbatsFRAFrance07:09:15  +  00:16:38=32,499 
94 ITARemo SabattiniITACadetti Italiens07:09:38  +  00:17:01=32,470 
95 ITAAngelo BrignoleITAItaly07:09:38  +  00:17:01=32,470 
96 FRALucien LaukFRAParis07:10:37  +  00:18:00=32,395 
97 ITAGiuseppe TaccaFRAIle De France-North East07:10:41  +  00:18:04=32,390 
98 ALGAbdel-Kader ZaafNAFNorth Africa07:11:56  +  00:19:19=32,297 
99 NEDFrans VosNLDHolland07:12:25  +  00:19:48=32,261 
100 FRAJacques RenaudFRAParis07:12:25  +  00:19:48=32,261 
101 ITALuciano PezziITAItaly07:12:25  +  00:19:48=32,261 
102 LUXMarcel ErnzerLUXLuxembourg07:12:25  +  00:19:48=32,261 
103 FRARoger QueugnetFRAIle De France-North East07:12:25  +  00:19:48=32,261 
104 POLAntoine FrankowskiFRAParis07:12:25  +  00:19:48=32,261 
105 FRASerge BlussonFRAParis07:12:25  +  00:19:48=32,261 
106 FRADominique ForliniFRAParis07:12:25  +  00:19:48=32,261 
107 ITAGiovanni CorrieriITAItaly07:12:25  +  00:19:48=32,261 
108 BELJoseph VerhaertBELBelgium07:12:25  +  00:19:48=32,261 
109 SUIMartin MetzgerCHESwitzerland07:13:12  +  00:20:35=32,202 
110 FRAArmand AudaireFRAWest07:17:08  +  00:24:31=31,912 
111 FRARobert BonnaventureFRAWest07:17:08  +  00:24:31=31,912 
112 ALGMarcel MolinesNAFNorth Africa07:22:47  +  00:30:10=31,505 
113 BELAlbert DubuissonBELAiglons Belges07:22:47  +  00:30:10=31,505 
114 ESPBernard FernandezFRACenter-South West07:24:11  +  00:31:34=31,406 
115 ITAPaul NeriFRASouth-East07:29:25  +  00:36:48=31,040 

Withdrawls: 1
 
Rider
Team
Reason
5  ITAGuido De SantiITAItalyDid not finish

Todays birthdays.

1876  Frédéric Rigaux
1896  Federico Gay
1901  Paul Delbart
1944  Jean-Pierre Ducasse
1948  Marc Lievens
1961  Willem Wijnant
1964  Miguel Indurain
1965  Gianni Faresin
1973  Stefano Garzelli
1982  André Greipel
1984  Alan Marangoni




Visits: